sat.trackr.live / text

‹ back to catalog

SAUDICOMSAT 5

NORAD 31124 · 2007-012H

PAYLOAD ACTIVE UNKNOWN

§ Identity

Operator
Country
SAUD
Launch date
2007-04-17
Launch site
TYMSC
Launch vehicle
Mass (kg)
RCS (m²)
0.05

External: N2YO · Heavens-Above · Gunter

§ Orbital elements

Epoch: 2026-05-25T04:28:34.495104Z

Period
98.08 min
Inclination
98.3479°
Eccentricity
0.0046958
Mean motion
14.68125898 rev/d
Perigee alt
634.0 km
Apogee alt
700.1 km
Semi-major
7,045.2 km
B*
8.0169e-5
RAAN
119.6020°
Arg perigee
196.4756°
Mean anomaly
163.4924°
Rev number
2,022

§ Raw data

SAUDICOMSAT 51 31124U 07012H   26145.18651036  .00000414  00000+0  80169-4 0  99952 31124  98.3479 119.6020 0046958 196.4756 163.4924 14.68125898 20229

JSON: /api/v1/satellites/31124 · /tle

For live sub-satellite position, see the globe view (requires WebGL).

§ Visibility from observer

Set your observer location to see the next 7 days of passes ≥ 10°. The values pass through the URL so the page stays shareable.

No JS? Fill the form by hand. The geolocation button needs JavaScript.